Change the Weather History Date:

Saturday, September 28, 2013

  Actual Average (KCHS) Record (KCHS)
Temperature  
Mean Temperature 67 °F 73 °F  
Max Temperature 77 °F 82 °F 94 °F (1986)
Min Temperature 57 °F 63 °F 50 °F (1962)
Degree Days  
Heating Degree Days 0 0  
Month to date heating degree days 0  
Since 1 July heating degree days 0  
Cooling Degree Days 2 8  
Month to date cooling degree days 318  
Year to date cooling degree days 2123  
Growing Degree Days 17 (Base 50)    
Moisture  
Dew Point 60 °F    
Average Humidity 80    
Maximum Humidity 100    
Minimum Humidity 61    
Precipitation  
Precipitation 0.00 in 0.18 in 4.96 in (1999)
Month to date precipitation 5.76  
Year to date precipitation 41.40  
Sea Level Pressure  
Sea Level Pressure 30.11 in    
Wind  
Wind Speed 5 mph (North)    
Max Wind Speed 9 mph    
Max Gust Speed 16 mph    
Visibility 10 miles    
Events      
T = Trace of Precipitation, MM = Missing Value Source: NWS Daily Summary

Daily Weather History Graph

Daily Weather History Graph

Search for Another Location

Airport or City:

Trip Planner

Search our weather history database for the weather conditions in past years. The results will help you decide how hot, cold, wet, or windy it might be!

Date:

Astronomy

Sep. 28, 2013 Rise Set
Actual Time 7:11 AM EDT 7:07 PM EDT
Civil Twilight 6:46 AM EDT 7:32 PM EDT
Nautical Twilight 6:18 AM EDT 8:00 PM EDT
Astronomical Twilight 5:49 AM EDT 8:29 PM EDT
Moon 1:13 AM EDT (9/28) 3:10 PM EDT (9/28)
Length of Visible Light 12h 45m
Length of Day
11h 55m
Last Quarter, 36% of the Moon is Illuminated
Sep 28
Last Quarter
Oct 4
New
Oct 11
First Quarter
Oct 18
Full
Oct 26
Last Quarter

Hourly Weather History & Observations

Time (EDT) Temp. Dew Point Humidity Pressure Visibility Wind Dir Wind Speed Gust Speed Precip Events Conditions
12:15 AM 62.6 °F 57.2 °F 82% 30.11 in 10.0 mi NNE 3.5 mph - N/A   Clear
12:35 AM 62.6 °F 57.2 °F 82% 30.11 in 10.0 mi NNE 3.5 mph - N/A   Clear
12:55 AM 62.6 °F 57.2 °F 82% 30.11 in 10.0 mi NNE 4.6 mph - N/A   Clear
1:15 AM 62.6 °F 57.2 °F 82% 30.10 in 10.0 mi NNE 3.5 mph - N/A   Clear
1:35 AM 62.6 °F 57.2 °F 82% 30.10 in 10.0 mi Calm Calm - N/A   Clear
1:55 AM 62.6 °F 57.2 °F 82% 30.10 in 10.0 mi NNE 6.9 mph - N/A   Clear
2:15 AM 62.6 °F 57.2 °F 82% 30.10 in 10.0 mi North 4.6 mph - N/A   Clear
2:35 AM 62.6 °F 57.2 °F 82% 30.10 in 10.0 mi North 4.6 mph - N/A   Clear
2:55 AM 60.8 °F 57.2 °F 88% 30.09 in 10.0 mi NNE 6.9 mph - N/A   Clear
3:15 AM 60.8 °F 57.2 °F 88% 30.09 in 10.0 mi North 4.6 mph - N/A   Clear
3:35 AM 60.8 °F 57.2 °F 88% 30.09 in 10.0 mi North 4.6 mph - N/A   Clear
3:55 AM 60.8 °F 57.2 °F 88% 30.09 in 10.0 mi North 5.8 mph - N/A   Clear
4:15 AM 60.8 °F 57.2 °F 88% 30.09 in 10.0 mi NNE 5.8 mph - N/A   Clear
4:35 AM 59.0 °F 57.2 °F 94% 30.08 in 10.0 mi North 4.6 mph - N/A   Clear
4:55 AM 59.0 °F 57.2 °F 94% 30.09 in 10.0 mi North 5.8 mph - N/A   Clear
5:15 AM 57.2 °F 57.2 °F 100% 30.09 in 10.0 mi North 3.5 mph - N/A   Clear
5:35 AM 57.2 °F 57.2 °F 100% 30.09 in 10.0 mi North 4.6 mph - N/A   Clear
5:55 AM 57.2 °F 55.4 °F 94% 30.10 in 10.0 mi North 5.8 mph - N/A   Clear
6:15 AM 57.2 °F 55.4 °F 94% 30.10 in 10.0 mi North 4.6 mph - N/A   Scattered Clouds
6:35 AM 59.0 °F 57.2 °F 94% 30.10 in 10.0 mi North 5.8 mph - N/A   Mostly Cloudy
6:55 AM 59.0 °F 57.2 °F 94% 30.11 in 10.0 mi North 6.9 mph - N/A   Mostly Cloudy
7:15 AM 59.0 °F 57.2 °F 94% 30.11 in 10.0 mi NNE 6.9 mph - N/A   Scattered Clouds
7:35 AM 59.0 °F 57.2 °F 94% 30.12 in 10.0 mi North 5.8 mph - N/A   Scattered Clouds
7:55 AM 59.0 °F 57.2 °F 94% 30.13 in 10.0 mi North 6.9 mph - N/A   Scattered Clouds
8:15 AM 60.8 °F 57.2 °F 88% 30.13 in 9.0 mi North 5.8 mph - N/A   Scattered Clouds
8:35 AM 60.8 °F 57.2 °F 88% 30.13 in 10.0 mi North 6.9 mph - N/A   Scattered Clouds
8:55 AM 62.6 °F 57.2 °F 82% 30.14 in 10.0 mi North 5.8 mph - N/A   Scattered Clouds
9:15 AM 62.6 °F 57.2 °F 82% 30.14 in 10.0 mi North 8.1 mph - N/A   Mostly Cloudy
9:35 AM 64.4 °F 59.0 °F 83% 30.14 in 10.0 mi North 5.8 mph - N/A   Partly Cloudy
9:55 AM 64.4 °F 59.0 °F 83% 30.14 in 10.0 mi North 6.9 mph - N/A   Scattered Clouds
10:15 AM 66.2 °F 60.8 °F 83% 30.15 in 10.0 mi North 5.8 mph - N/A   Mostly Cloudy
10:35 AM 68.0 °F 60.8 °F 78% 30.15 in 10.0 mi NNE 6.9 mph - N/A   Mostly Cloudy
10:55 AM 69.8 °F 60.8 °F 73% 30.15 in 10.0 mi North 5.8 mph - N/A   Mostly Cloudy
11:15 AM 69.8 °F 60.8 °F 73% 30.15 in 10.0 mi North 9.2 mph - N/A   Mostly Cloudy
11:35 AM 71.6 °F 60.8 °F 69% 30.15 in 10.0 mi Calm Calm - N/A   Mostly Cloudy
11:55 AM 71.6 °F 60.8 °F 69% 30.15 in 10.0 mi North 8.1 mph - N/A   Partly Cloudy
12:15 PM 73.4 °F 60.8 °F 65% 30.15 in 10.0 mi North 8.1 mph - N/A   Partly Cloudy
12:35 PM 73.4 °F 60.8 °F 65% 30.15 in 10.0 mi North 6.9 mph - N/A   Partly Cloudy
12:55 PM 73.4 °F 60.8 °F 65% 30.14 in 10.0 mi North 9.2 mph 16.1 mph N/A   Scattered Clouds
1:15 PM 73.4 °F 62.6 °F 69% 30.14 in 10.0 mi North 8.1 mph - N/A   Mostly Cloudy
1:35 PM 73.4 °F 62.6 °F 69% 30.13 in 10.0 mi North 6.9 mph - N/A   Partly Cloudy
1:55 PM 73.4 °F 62.6 °F 69% 30.12 in 10.0 mi North 5.8 mph - N/A   Partly Cloudy
2:15 PM 73.4 °F 62.6 °F 69% 30.11 in 10.0 mi North 9.2 mph - N/A   Partly Cloudy
2:35 PM 75.2 °F 62.6 °F 65% 30.11 in 10.0 mi North 5.8 mph - N/A   Partly Cloudy
2:55 PM 75.2 °F 62.6 °F 65% 30.09 in 10.0 mi NNE 6.9 mph - N/A   Partly Cloudy
3:15 PM 77.0 °F 62.6 °F 61% 30.09 in 10.0 mi North 8.1 mph - N/A   Scattered Clouds
3:35 PM 75.2 °F 62.6 °F 65% 30.09 in 10.0 mi North 8.1 mph - N/A   Scattered Clouds
3:55 PM 75.2 °F 62.6 °F 65% 30.09 in 10.0 mi North 4.6 mph - N/A   Mostly Cloudy
4:15 PM 75.2 °F 62.6 °F 65% 30.09 in 10.0 mi NNE 6.9 mph - N/A   Mostly Cloudy
4:35 PM 75.2 °F 62.6 °F 65% 30.09 in 10.0 mi North 5.8 mph - N/A   Scattered Clouds
4:55 PM 77.0 °F 62.6 °F 61% 30.09 in 10.0 mi North 5.8 mph - N/A   Mostly Cloudy
5:15 PM 75.2 °F 62.6 °F 65% 30.09 in 10.0 mi NNE 5.8 mph - N/A   Overcast
5:35 PM 75.2 °F 62.6 °F 65% 30.09 in 10.0 mi North 6.9 mph - N/A   Mostly Cloudy
5:55 PM 75.2 °F 62.6 °F 65% 30.10 in 10.0 mi North 8.1 mph - N/A   Scattered Clouds
6:15 PM 73.4 °F 64.4 °F 73% 30.10 in 10.0 mi North 3.5 mph - N/A   Mostly Cloudy
6:35 PM 73.4 °F 64.4 °F 73% 30.10 in 10.0 mi North 4.6 mph - N/A   Scattered Clouds
6:55 PM 73.4 °F 64.4 °F 73% 30.10 in 10.0 mi North 4.6 mph - N/A   Mostly Cloudy
7:15 PM 71.6 °F 64.4 °F 78% 30.10 in 10.0 mi Calm Calm - N/A   Mostly Cloudy
7:35 PM 71.6 °F 64.4 °F 78% 30.11 in 10.0 mi Calm Calm - N/A   Scattered Clouds
7:55 PM 69.8 °F 64.4 °F 83% 30.11 in 10.0 mi Calm Calm - N/A   Clear
8:15 PM 69.8 °F 64.4 °F 83% 30.11 in 10.0 mi Calm Calm - N/A   Mostly Cloudy
8:35 PM 69.8 °F 64.4 °F 83% 30.11 in 10.0 mi Calm Calm - N/A   Scattered Clouds
8:55 PM 68.0 °F 64.4 °F 88% 30.11 in 10.0 mi NNE 3.5 mph - N/A   Partly Cloudy
9:15 PM 68.0 °F 64.4 °F 88% 30.11 in 10.0 mi Calm Calm - N/A   Partly Cloudy
9:35 PM 66.2 °F 62.6 °F 88% 30.11 in 10.0 mi North 3.5 mph - N/A   Clear
9:55 PM 66.2 °F 62.6 °F 88% 30.11 in 10.0 mi NNE 3.5 mph - N/A   Clear
10:15 PM 66.2 °F 62.6 °F 88% 30.11 in 10.0 mi Calm Calm - N/A   Clear
10:35 PM 64.4 °F 60.8 °F 88% 30.11 in 10.0 mi Calm Calm - N/A   Clear
10:55 PM 64.4 °F 60.8 °F 88% 30.10 in 10.0 mi Calm Calm - N/A   Clear
11:15 PM 62.6 °F 60.8 °F 94% 30.10 in 10.0 mi Calm Calm - N/A   Clear
11:35 PM 62.6 °F 60.8 °F 94% 30.10 in 10.0 mi Calm Calm - N/A   Clear
11:55 PM 62.6 °F 60.8 °F 94% 30.10 in 10.0 mi Calm Calm - N/A   Clear